GW3329 Weather Reports


time (UTC)temp
C
wind
direction
speed
KPH
gust
KPH
rain 1hr
cm
rain 24hr
cm
rain mn
cm
humidity
%
barometer
mb
20260904164809 21 138 1.6 9.7 0.00 0.00 0.00 72 1017.6
20260904164304 22 78 8.0 9.7 0.00 0.00 0.00 72 1017.7
20260904163800 21 113 1.6 6.4 0.00 0.00 0.00 73 1017.5
20260904163254 21 88 0.0 3.2 0.00 0.00 0.00 74 1017.7
20260904162754 21 101 1.6 6.4 0.00 0.00 0.00 74 1017.6
20260904162249 21 84 4.8 9.7 0.00 0.00 0.00 73 1017.5
20260904161745 21 88 0.0 1.6 0.00 0.00 0.00 74 1017.5
20260904161244 20 87 1.6 4.8 0.00 0.00 0.00 77 1017.7
20260904160740 21 60 1.6 4.8 0.00 0.00 0.00 76 1017.6
20260904160236 21 133 1.6 3.2 0.00 0.00 0.00 76 1017.3
20260904155735 21 141 1.6 1.6 0.00 0.00 0.00 77 1017.1
20260904155234 20 133 1.6 4.8 0.00 0.00 0.00 78 1017.3
20260904154732 20 79 4.8 4.8 0.00 0.00 0.00 78 1017.7
20260904154227 20 98 1.6 6.4 0.00 0.00 0.00 80 1017.4
20260904153723 20 93 9.7 11.3 0.00 0.00 0.00 79 1017.3
20260904153219 20 113 3.2 4.8 0.00 0.00 0.00 79 1017.6
20260904152716 20 142 1.6 9.7 0.00 0.00 0.00 81 1017.3
20260904152216 19 139 3.2 3.2 0.00 0.00 0.00 82 1017.3
20260904151710 19 104 4.8 6.4 0.00 0.00 0.00 82 1017.3
20260904151209 19 170 3.2 6.4 0.00 0.00 0.00 83 1017.1
20260904150705 18 114 3.2 6.4 0.00 0.00 0.00 84 1017.5
20260904150201 18 128 3.2 3.2 0.00 0.00 0.00 85 1017.1
20260904145659 18 124 1.6 3.2 0.00 0.00 0.00 86 1017.5
20260904145154 17 113 1.6 6.4 0.00 0.00 0.00 87 1017.3
20260904144650 17 91 4.8 6.4 0.00 0.00 0.00 86 1017.2
20260904144145 17 143 1.6 3.2 0.00 0.00 0.00 87 1017.1
20260904143636 17 95 1.6 3.2 0.00 0.00 0.00 88 1017.2
20260904143132 17 111 0.0 3.2 0.00 0.00 0.00 89 1017.2
20260904142629 16 95 0.0 3.2 0.00 0.00 0.00 90 1017.1
20260904142124 16 104 0.0 0.0 0.00 0.00 0.00 91 1017.1
20260904141618 16 143 0.0 0.0 0.00 0.00 0.00 93 1016.9
20260904141113 16 143 0.0 0.0 0.00 0.00 0.00 94 1016.8
20260904140610 15 143 0.0 0.0 0.00 0.00 0.00 94 1016.7
20260904140104 15 126 0.0 0.0 0.00 0.00 0.00 95 1016.7
20260904135603 15 156 0.0 0.0 0.00 0.00 0.00 95 1016.8
20260904135059 15 153 0.0 0.0 0.00 0.00 0.00 95 1016.8
20260904134554 15 153 0.0 1.6 0.00 0.00 0.00 95 1016.8
20260904134043 15 148 0.0 1.6 0.00 0.00 0.00 95 1016.6
20260904133542 15 130 1.6 3.2 0.00 0.00 0.00 95 1016.5
20260904133033 15 155 1.6 1.6 0.00 0.00 0.00 95 1016.5
20260904132527 15 170 0.0 0.0 0.00 0.00 0.00 95 1016.4
20260904132021 15 146 0.0 0.0 0.00 0.00 0.00 95 1016.6
20260904131516 15 123 0.0 3.2 0.00 0.00 0.00 95 1016.4
20260904131012 15 110 0.0 1.6 0.00 0.00 0.00 95 1016.6
20260904130511 15 133 0.0 1.6 0.00 0.00 0.00 95 1016.2
20260904130006 15 146 0.0 1.6 0.00 0.00 0.00 95 1016.3
20260904125502 15 145 0.0 1.6 0.00 0.00 0.00 95 1016.5
20260904124956 15 141 0.0 0.0 0.00 0.00 0.00 95 1016.1
20260904124452 15 159 1.6 3.2 0.00 0.00 0.00 95 1016.6
20260904123948 15 142 0.0 1.6 0.00 0.00 0.00 95 1016.6
20260904123442 15 152 0.0 0.0 0.00 0.00 0.00 94 1016.3
20260904122938 15 137 0.0 0.0 0.00 0.00 0.00 94 1016.2
20260904122437 15 143 0.0 0.0 0.00 0.00 0.00 94 1016.4
20260904121932 15 138 0.0 0.0 0.00 0.00 0.00 94 1016.2
20260904121428 15 148 0.0 0.0 0.00 0.00 0.00 94 1016.2
20260904120925 15 149 0.0 0.0 0.00 0.00 0.00 94 1016.1
20260904120420 15 149 0.0 0.0 0.00 0.00 0.00 94 1016.3
20260904115915 14 151 0.0 0.0 0.00 0.00 0.00 94 1016.3
20260904115410 14 153 0.0 0.0 0.00 0.00 0.00 94 1016.2
20260904114904 14 151 0.0 0.0 0.00 0.00 0.00 95 1016.1
20260904114359 14 132 0.0 0.0 0.00 0.00 0.00 95 1016.3
20260904113855 13 158 0.0 0.0 0.00 0.00 0.00 95 1016.3
20260904113354 13 143 0.0 0.0 0.00 0.00 0.00 95 1016.2
20260904112854 13 143 0.0 0.0 0.00 0.00 0.00 95 1016.1
20260904112349 13 143 0.0 0.0 0.00 0.00 0.00 95 1016.1
20260904111845 13 143 0.0 0.0 0.00 0.00 0.00 95 1016.2
20260904111341 13 143 0.0 0.0 0.00 0.00 0.00 95 1016.1
20260904110837 13 149 0.0 0.0 0.00 0.00 0.00 96 1016.2
20260904110335 13 149 0.0 0.0 0.00 0.00 0.00 95 1016.3
20260904105830 13 151 0.0 0.0 0.00 0.00 0.00 95 1016.1
20260904105325 13 151 0.0 0.0 0.00 0.00 0.00 95 1016.2
20260904104820 13 151 0.0 0.0 0.00 0.00 0.00 95 1016.3
20260904104315 13 151 0.0 0.0 0.00 0.00 0.00 95 1016.2
20260904103812 13 151 0.0 0.0 0.00 0.00 0.00 95 1016.2
20260904103312 13 151 0.0 0.0 0.00 0.00 0.00 95 1015.8
20260904102808 13 151 0.0 0.0 0.00 0.00 0.00 95 1016.1
20260904102306 13 151 0.0 0.0 0.00 0.00 0.00 95 1016.2
20260904101759 13 147 0.0 0.0 0.00 0.00 0.00 95 1016.1
20260904101255 13 147 0.0 0.0 0.00 0.00 0.00 95 1015.7
20260904100751 13 147 0.0 0.0 0.00 0.00 0.00 95 1016.0
20260904100246 13 147 0.0 0.0 0.00 0.00 0.00 95 1016.1
20260904095746 13 134 0.0 0.0 0.00 0.00 0.00 95 1015.9
20260904095241 13 152 0.0 0.0 0.00 0.00 0.00 94 1016.1
20260904094736 14 152 0.0 0.0 0.00 0.00 0.00 94 1016.2
20260904094231 14 152 0.0 0.0 0.00 0.00 0.00 94 1016.1
20260904093728 14 151 0.0 0.0 0.00 0.00 0.00 94 1016.1
20260904093227 14 151 0.0 0.0 0.00 0.00 0.00 94 1016.0
20260904092723 14 151 0.0 0.0 0.00 0.00 0.00 94 1016.1
20260904092219 14 151 0.0 0.0 0.00 0.00 0.00 93 1016.1
20260904091714 14 151 0.0 0.0 0.00 0.00 0.00 93 1016.1
20260904091210 14 151 0.0 0.0 0.00 0.00 0.00 93 1016.1
20260904090705 14 151 0.0 0.0 0.00 0.00 0.00 93 1016.0
20260904090201 15 151 0.0 0.0 0.00 0.00 0.00 93 1016.0
20260904085655 15 151 0.0 0.0 0.00 0.00 0.00 92 1015.9
20260904085150 15 151 0.0 0.0 0.00 0.00 0.00 92 1016.0
20260904084645 15 151 0.0 0.0 0.00 0.00 0.00 92 1016.2
20260904084142 15 151 0.0 0.0 0.00 0.00 0.00 92 1016.1
20260904083638 15 151 0.0 0.0 0.00 0.00 0.00 92 1016.3
20260904083133 15 151 0.0 0.0 0.00 0.00 0.00 92 1016.2
20260904082628 15 151 0.0 0.0 0.00 0.00 0.00 92 1016.1
20260904082124 15 151 0.0 0.0 0.00 0.00 0.00 92 1016.2
20260904081619 15 151 0.0 0.0 0.00 0.00 0.00 92 1016.5
20260904081114 15 151 0.0 0.0 0.00 0.00 0.00 92 1016.2
20260904080610 15 151 0.0 0.0 0.00 0.00 0.00 92 1016.6
20260904080106 15 151 0.0 0.0 0.00 0.00 0.00 92 1016.4
20260904075601 15 151 0.0 0.0 0.00 0.00 0.00 92 1016.3
20260904075055 15 152 0.0 0.0 0.00 0.00 0.00 92 1016.5
20260904074555 15 151 0.0 0.0 0.00 0.00 0.00 93 1016.4
20260904074050 15 149 0.0 0.0 0.00 0.00 0.00 92 1016.5
20260904073544 15 171 0.0 0.0 0.00 0.00 0.00 92 1016.7
20260904073041 15 171 0.0 0.0 0.00 0.00 0.00 92 1016.4
20260904072536 15 171 0.0 0.0 0.00 0.00 0.00 92 1016.5
20260904072031 15 166 0.0 0.0 0.00 0.00 0.00 92 1016.5
20260904071526 15 166 0.0 0.0 0.00 0.00 0.00 93 1016.4
20260904071021 15 157 0.0 0.0 0.00 0.00 0.00 92 1016.5
20260904070521 15 157 0.0 0.0 0.00 0.00 0.00 92 1016.3
20260904070016 15 157 0.0 0.0 0.00 0.00 0.00 93 1016.1
20260904065511 15 157 0.0 0.0 0.00 0.00 0.00 93 1016.3
20260904065007 15 157 0.0 0.0 0.00 0.00 0.00 93 1016.3
20260904064503 15 157 0.0 0.0 0.00 0.00 0.00 93 1016.3
20260904064002 15 157 0.0 0.0 0.00 0.00 0.00 93 1016.3
20260904063459 15 157 0.0 0.0 0.00 0.00 0.00 93 1016.2
20260904062954 15 157 0.0 0.0 0.00 0.00 0.00 93 1016.2
20260904062450 15 155 0.0 0.0 0.00 0.00 0.00 93 1016.2
20260904061945 16 155 0.0 0.0 0.00 0.00 0.00 93 1016.0
20260904061442 15 155 0.0 0.0 0.00 0.00 0.00 92 1016.2
20260904060937 15 152 0.0 0.0 0.00 0.00 0.00 92 1016.2
20260904060433 16 155 0.0 0.0 0.00 0.00 0.00 92 1016.4
20260904055929 16 155 0.0 0.0 0.00 0.00 0.00 92 1016.2
20260904055424 16 153 0.0 0.0 0.00 0.00 0.00 92 1016.3
20260904054920 16 155 0.0 0.0 0.00 0.00 0.00 92 1016.1
20260904054415 16 153 0.0 0.0 0.00 0.00 0.00 92 1016.4
20260904053911 16 153 0.0 0.0 0.00 0.00 0.00 92 1016.3
20260904053410 16 153 0.0 0.0 0.00 0.00 0.00 92 1016.2
20260904052906 16 153 0.0 0.0 0.00 0.00 0.00 91 1016.5
20260904052402 16 153 0.0 0.0 0.00 0.00 0.00 91 1016.4
20260904051859 16 153 0.0 0.0 0.00 0.00 0.00 91 1016.5
20260904051354 16 153 0.0 0.0 0.00 0.00 0.00 91 1016.4
20260904050848 16 153 0.0 0.0 0.00 0.00 0.00 90 1016.8
20260904050345 16 153 0.0 0.0 0.00 0.00 0.00 90 1016.7
20260904045839 16 152 0.0 0.0 0.00 0.00 0.00 89 1016.7
20260904045334 16 153 0.0 0.0 0.00 0.00 0.00 88 1016.6
20260904044829 17 152 0.0 0.0 0.00 0.00 0.00 87 1016.3
20260904044325 17 163 0.0 0.0 0.00 0.00 0.00 87 1016.7
20260904043821 17 162 0.0 0.0 0.00 0.00 0.00 88 1016.5
20260904043317 17 168 0.0 0.0 0.00 0.00 0.00 89 1016.6
20260904042812 17 167 0.0 0.0 0.00 0.00 0.00 88 1016.5
20260904042309 17 176 0.0 0.0 0.00 0.00 0.00 88 1016.4
20260904041808 17 170 0.0 0.0 0.00 0.00 0.00 87 1016.6
20260904041305 17 169 0.0 0.0 0.00 0.00 0.00 87 1016.5
20260904040800 17 183 1.6 1.6 0.00 0.00 0.00 87 1016.3
20260904040256 17 187 0.0 0.0 0.00 0.00 0.00 86 1016.4
20260904035751 17 157 0.0 0.0 0.00 0.00 0.00 86 1016.2
20260904035247 17 166 0.0 0.0 0.00 0.00 0.00 85 1016.3
20260904034746 17 162 0.0 0.0 0.00 0.00 0.00 85 1016.5
20260904034241 17 158 0.0 0.0 0.00 0.00 0.00 84 1016.2
20260904033736 17 167 0.0 0.0 0.00 0.00 0.00 84 1016.3
20260904033233 17 162 0.0 0.0 0.00 0.00 0.00 84 1016.2
20260904032729 17 162 0.0 0.0 0.00 0.00 0.00 83 1016.0
20260904032228 18 158 0.0 0.0 0.00 0.00 0.00 83 1016.2
20260904031723 18 162 0.0 0.0 0.00 0.00 0.00 82 1016.3
20260904031218 18 160 0.0 0.0 0.00 0.00 0.00 82 1016.0
20260904030714 18 161 0.0 1.6 0.00 0.00 0.00 82 1015.9
20260904030209 18 170 0.0 0.0 0.00 0.00 0.00 81 1016.1
20260904025706 18 155 0.0 1.6 0.00 0.00 0.00 81 1016.0
20260904025200 18 131 0.0 0.0 0.00 0.00 0.00 80 1015.9
20260904024656 18 128 0.0 1.6 0.00 0.00 0.00 80 1015.9
20260904024151 18 178 0.0 1.6 0.00 0.00 0.00 79 1015.9
20260904023647 18 144 0.0 1.6 0.00 0.00 0.00 78 1015.7
20260904023143 19 190 0.0 3.2 0.00 0.00 0.00 78 1015.8
20260904022642 19 208 3.2 6.4 0.00 0.00 0.00 77 1015.8
20260904022139 19 178 0.0 1.6 0.00 0.00 0.00 77 1015.9
20260904021635 20 249 3.2 3.2 0.00 0.00 0.00 76 1015.9
20260904021125 20 178 1.6 9.7 0.00 0.00 0.00 75 1015.8
20260904020621 20 103 1.6 3.2 0.00 0.00 0.00 75 1015.7
20260904020115 20 245 3.2 3.2 0.00 0.00 0.00 74 1015.8
20260904015615 20 141 0.0 3.2 0.00 0.00 0.00 73 1015.7
20260904015113 20 53 0.0 3.2 0.00 0.00 0.00 73 1015.5
20260904014607 21 92 1.6 4.8 0.00 0.00 0.00 72 1015.6
20260904014103 21 203 1.6 1.6 0.00 0.00 0.00 72 1015.8
20260904013600 21 155 0.0 1.6 0.00 0.00 0.00 72 1015.8
20260904013056 21 148 0.0 4.8 0.00 0.00 0.00 71 1015.8
20260904012556 21 178 3.2 4.8 0.00 0.00 0.00 70 1015.7
20260904012056 22 231 1.6 3.2 0.00 0.00 0.00 69 1015.9
20260904011550 22 102 1.6 6.4 0.00 0.00 0.00 69 1015.9
20260904011045 22 8 1.6 4.8 0.00 0.00 0.00 68 1015.9
20260904010541 22 259 4.8 9.7 0.00 0.00 0.00 69 1016.0
20260904010037 22 257 6.4 9.7 0.00 0.00 0.00 68 1015.9
20260904005532 22 133 0.0 6.4 0.00 0.00 0.00 68 1015.8
20260904005027 23 291 6.4 6.4 0.00 0.00 0.00 67 1015.8
20260904004523 23 235 4.8 4.8 0.00 0.00 0.00 67 1016.0
20260904004022 23 262 6.4 6.4 0.00 0.00 0.00 67 1016.1
20260904003519 23 38 3.2 11.3 0.00 0.00 0.00 67 1015.9
20260904003014 23 168 3.2 11.3 0.00 0.00 0.00 67 1015.7
20260904002510 23 265 1.6 4.8 0.00 0.00 0.00 67 1015.8
20260904002009 23 171 4.8 9.7 0.00 0.00 0.00 66 1015.9
20260904001505 23 250 4.8 6.4 0.00 0.00 0.00 67 1016.0
20260904000959 23 265 4.8 9.7 0.00 0.00 0.00 67 1015.8
20260904000458 23 201 4.8 9.7 0.00 0.00 0.00 67 1015.8
20260903235954 23 202 1.6 9.7 0.00 0.00 0.00 66 1015.7
20260903235449 24 297 4.8 11.3 0.00 0.00 0.00 66 1016.0
20260903234944 25 260 6.4 9.7 0.00 0.00 0.00 65 1016.0
20260903234440 24 291 3.2 16.1 0.00 0.00 0.00 65 1016.1
20260903233936 24 269 4.8 9.7 0.00 0.00 0.00 65 1015.9
20260903233431 24 242 6.4 9.7 0.00 0.00 0.00 65 1015.9
20260903232926 25 307 3.2 9.7 0.00 0.00 0.00 65 1016.1
20260903232420 25 171 3.2 6.4 0.00 0.00 0.00 64 1016.0
20260903231915 25 287 3.2 9.7 0.00 0.00 0.00 64 1016.1
20260903231410 25 305 6.4 9.7 0.00 0.00 0.00 64 1016.2
20260903230905 25 159 8.0 14.5 0.00 0.00 0.00 64 1016.1
20260903230400 25 125 4.8 9.7 0.00 0.00 0.00 64 1016.1
20260903225856 25 266 3.2 6.4 0.00 0.00 0.00 63 1016.1
20260903225352 26 13 4.8 14.5 0.00 0.00 0.00 63 1016.2
20260903224848 26 46 3.2 4.8 0.00 0.00 0.00 63 1016.1
20260903224344 26 97 4.8 12.9 0.00 0.00 0.00 62 1016.4
20260903223839 26 249 1.6 3.2 0.00 0.00 0.00 62 1016.3
20260903223337 26 189 4.8 6.4 0.00 0.00 0.00 63 1016.2
20260903222832 26 14 3.2 4.8 0.00 0.00 0.00 63 1016.4
20260903222327 26 138 1.6 4.8 0.00 0.00 0.00 63 1016.1
20260903221821 26 224 3.2 4.8 0.00 0.00 0.00 61 1016.5
20260903221320 26 269 6.4 12.9 0.00 0.00 0.00 61 1016.2
20260903220818 26 158 6.4 9.7 0.00 0.00 0.00 63 1016.4
20260903220312 26 276 9.7 16.1 0.00 0.00 0.00 63 1016.6
20260903215810 26 187 3.2 6.4 0.00 0.00 0.00 62 1016.6
20260903215308 26 218 6.4 9.7 0.00 0.00 0.00 62 1016.5
20260903214805 26 264 9.7 14.5 0.00 0.00 0.00 62 1016.7
20260903214302 26 51 3.2 6.4 0.00 0.00 0.00 63 1016.5
20260903213756 26 112 3.2 12.9 0.00 0.00 0.00 63 1016.5
20260903213251 26 354 3.2 9.7 0.00 0.00 0.00 63 1016.4
20260903212742 26 156 1.6 6.4 0.00 0.00 0.00 64 1016.5
20260903212238 26 285 6.4 11.3 0.00 0.00 0.00 64 1016.6
20260903211731 26 191 3.2 6.4 0.00 0.00 0.00 64 1016.6
20260903211228 25 13 1.6 9.7 0.00 0.00 0.00 66 1016.8
20260903210724 26 15 6.4 11.3 0.00 0.00 0.00 64 1016.9
20260903210219 26 53 1.6 6.4 0.00 0.00 0.00 65 1016.9
20260903205719 26 265 8.0 12.9 0.00 0.00 0.00 64 1016.7
20260903205218 26 127 3.2 11.3 0.00 0.00 0.00 64 1017.0
20260903204713 26 242 4.8 12.9 0.00 0.00 0.00 65 1016.7
20260903204210 26 98 0.0 6.4 0.00 0.00 0.00 66 1016.8
20260903203705 25 223 6.4 11.3 0.00 0.00 0.00 65 1016.7
20260903203201 26 244 6.4 12.9 0.00 0.00 0.00 64 1017.0
20260903202654 26 260 6.4 12.9 0.00 0.00 0.00 63 1016.9
20260903202150 26 223 3.2 6.4 0.00 0.00 0.00 63 1016.8
20260903201644 26 167 3.2 9.7 0.00 0.00 0.00 64 1016.8
20260903201143 26 63 1.6 14.5 0.00 0.00 0.00 64 1016.8
20260903200638 26 201 4.8 6.4 0.00 0.00 0.00 63 1016.9
20260903200133 26 258 6.4 9.7 0.00 0.00 0.00 63 1016.9
20260903195629 26 183 1.6 9.7 0.00 0.00 0.00 63 1017.0
20260903195125 26 91 1.6 9.7 0.00 0.00 0.00 64 1017.2
20260903194620 26 243 4.8 14.5 0.00 0.00 0.00 63 1017.1
20260903194120 26 54 1.6 11.3 0.00 0.00 0.00 63 1017.2
20260903193616 26 197 1.6 3.2 0.00 0.00 0.00 62 1017.1
20260903193111 26 160 3.2 4.8 0.00 0.00 0.00 62 1017.1
20260903192609 26 203 6.4 9.7 0.00 0.00 0.00 62 1017.4
20260903192108 26 244 11.3 12.9 0.00 0.00 0.00 63 1017.1
20260903191605 26 289 6.4 9.7 0.00 0.00 0.00 61 1017.3
20260903191059 26 284 6.4 11.3 0.00 0.00 0.00 61 1017.3
20260903190559 26 108 3.2 6.4 0.00 0.00 0.00 62 1017.3
20260903190059 27 308 9.7 11.3 0.00 0.00 0.00 58 1017.5
20260903185554 26 155 0.0 1.6 0.00 0.00 0.00 60 1017.5
20260903185049 26 102 0.0 3.2 0.00 0.00 0.00 60 1017.9
20260903184545 26 104 0.0 4.8 0.00 0.00 0.00 59 1017.6
20260903184040 26 56 0.0 4.8 0.00 0.00 0.00 58 1017.7
20260903183539 26 30 3.2 3.2 0.00 0.00 0.00 58 1017.7
20260903183035 26 107 1.6 3.2 0.00 0.00 0.00 57 1017.8
20260903182533 26 165 1.6 6.4 0.00 0.00 0.00 58 1017.8
20260903182030 26 59 1.6 3.2 0.00 0.00 0.00 59 1017.8
20260903181528 26 138 1.6 4.8 0.00 0.00 0.00 59 1017.8
20260903181023 26 121 1.6 6.4 0.00 0.00 0.00 59 1017.7
20260903180519 25 97 3.2 4.8 0.00 0.00 0.00 59 1017.7
20260903180018 25 67 0.0 3.2 0.00 0.00 0.00 60 1017.9
20260903175517 25 186 4.8 6.4 0.00 0.00 0.00 59 1017.9
20260903175017 25 151 0.0 1.6 0.00 0.00 0.00 62 1017.9
20260903174511 25 186 1.6 3.2 0.00 0.00 0.00 60 1017.9
20260903174006 25 158 3.2 4.8 0.00 0.00 0.00 62 1018.1
20260903173501 24 102 1.6 4.8 0.00 0.00 0.00 64 1017.9
20260903172957 25 132 1.6 3.2 0.00 0.00 0.00 63 1017.9
20260903172457 24 137 0.0 1.6 0.00 0.00 0.00 64 1018.1
20260903171952 23 71 0.0 1.6 0.00 0.00 0.00 66 1018.2
20260903171447 23 90 3.2 4.8 0.00 0.00 0.00 66 1018.0
20260903170942 23 109 0.0 4.8 0.00 0.00 0.00 67 1018.1
20260903170437 23 89 3.2 3.2 0.00 0.00 0.00 67 1018.0
20260903165936 23 116 1.6 3.2 0.00 0.00 0.00 67 1018.2
20260903165430 22 133 1.6 3.2 0.00 0.00 0.00 68 1018.1